Overview Statistics Trail Chart Weather Telemetry Raw packets
 

This is the latest recevied weather packets stored in our database for station/object VE8SKI. If no packets are shown the sender has not sent any weather packets the latest 10 day(s).

<< 90 91 92 93 94 95 96 >>
Time Temp. Humidity Pressure Rain* Wind** Luminosity Snow
1777436111 -1.67° C 86% 1020.1 hPa 0 mm 0 m/s - -
1777435811 -1.67° C 86% 1019.9 hPa 0 mm 0 m/s - -
1777435511 -1.11° C 85% 1019.7 hPa 0 mm 0 m/s - -
1777435211 -1.11° C 84% 1019.4 hPa 0 mm 0 m/s - -
1777434912 -0.56° C 85% 1019.2 hPa 0 mm 0 m/s - -
1777434609 -0.56° C 83% 1019 hPa 0 mm 0 m/s - -
1777434310 0° C 84% 1018.8 hPa 0 mm 0 m/s - -
1777434010 0° C 83% 1018.6 hPa 0 mm 0 m/s - -
1777433710 0° C 79% 1018.4 hPa 0 mm 0 m/s - -
1777433411 0.56° C 79% 1018.3 hPa 0 mm 0 m/s - -
1777433111 1.11° C 79% 1018.1 hPa 0 mm 0 m/s - -
1777432809 1.67° C 77% 1017.9 hPa 0 mm 0 m/s - -
1777432509 1.67° C 76% 1017.7 hPa 0 mm 0 m/s - -
1777432209 2.22° C 76% 1017.6 hPa 0 mm 0 m/s - -
1777431910 2.22° C 75% 1017.5 hPa 0 mm 0 m/s - -
1777431610 2.78° C 73% 1017.3 hPa 0 mm 0 m/s - -
1777431311 3.33° C 72% 1017.1 hPa 0 mm 0 m/s - -
1777431008 3.89° C 71% 1017 hPa 0 mm 0 m/s - -
1777430709 3.89° C 71% 1017 hPa 0 mm 0 m/s - -
1777430409 3.89° C 71% 1016.9 hPa 0 mm 0 m/s - -
1777430110 3.89° C 72% 1016.8 hPa 0 mm 0 m/s - -
1777429810 4.44° C 72% 1016.7 hPa 0 mm 0 m/s - -
1777429511 5° C 71% 1016.6 hPa 0 mm 0 m/s - -
1777429208 5° C 71% 1016.5 hPa 0 mm 0 m/s - -
1777428909 5° C 72% 1016.5 hPa 0 mm 0 m/s - -

* Rain latest hour (hover to see other rain measurements)
** Current wind speed in m/s (hover to see current wind gust speed)